| time (UTC) | temp C | wind direction | speed KPH | gust KPH | rain 1hr cm | rain 24hr cm | rain mn cm | humidity % | barometer mb |
| 20260505152144 | 10 | 261 | 9.7 | 24.1 | 0.00 | 0.03 | 0.03 | 41 | 988.1 |
| 20260505150644 | 9 | 291 | 9.7 | 16.1 | 0.00 | 0.03 | 0.03 | 43 | 988.3 |
| 20260505140633 | 9 | 242 | 12.9 | 17.7 | 0.00 | 0.03 | 0.03 | 45 | 988.0 |
| 20260505123611 | 8 | 289 | 3.2 | 12.9 | 0.00 | 0.03 | 0.03 | 70 | 986.8 |
| 20260505122108 | 8 | 261 | 14.5 | 20.9 | 0.00 | 0.03 | 0.03 | 71 | 987.3 |
| 20260505120603 | 8 | 297 | 6.4 | 9.7 | 0.00 | 0.03 | 0.03 | 75 | 985.8 |
| 20260505115103 | 8 | 288 | 3.2 | 6.4 | 0.00 | 0.03 | 0.03 | 79 | 985.6 |
| 20260505113559 | 7 | 266 | 8.0 | 11.3 | 0.00 | 0.03 | 0.03 | 84 | 985.8 |
| 20260505112056 | 7 | 271 | 4.8 | 11.3 | 0.00 | 0.03 | 0.03 | 85 | 985.4 |
| 20260505110554 | 7 | 274 | 9.7 | 12.9 | 0.00 | 0.03 | 0.03 | 85 | 984.9 |
| 20260505102044 | 7 | 304 | 4.8 | 9.7 | 0.00 | 0.03 | 0.03 | 84 | 984.1 |
| 20260505100541 | 7 | 234 | 3.2 | 4.8 | 0.00 | 0.03 | 0.03 | 84 | 983.9 |
| 20260505095037 | 7 | 259 | 6.4 | 12.9 | 0.00 | 0.03 | 0.03 | 82 | 984.0 |
| 20260505093532 | 8 | 287 | 4.8 | 11.3 | 0.00 | 0.03 | 0.03 | 78 | 983.3 |
| 20260505092031 | 8 | 263 | 4.8 | 4.8 | 0.00 | 0.03 | 0.03 | 74 | 982.7 |
| 20260505090529 | 9 | 290 | 8.0 | 12.9 | 0.00 | 0.03 | 0.03 | 71 | 982.7 |
| 20260505085027 | 9 | 242 | 3.2 | 6.4 | 0.00 | 0.03 | 0.03 | 71 | 982.4 |
| 20260505083526 | 10 | 254 | 1.6 | 4.8 | 0.00 | 0.03 | 0.03 | 70 | 982.4 |
| 20260505082021 | 10 | 277 | 6.4 | 9.7 | 0.00 | 0.03 | 0.03 | 66 | 982.0 |
| 20260505080516 | 11 | 272 | 8.0 | 11.3 | 0.00 | 0.03 | 0.03 | 63 | 981.4 |
| 20260505075012 | 11 | 269 | 6.4 | 11.3 | 0.00 | 0.03 | 0.03 | 61 | 981.6 |
| 20260505073509 | 11 | 334 | 6.4 | 11.3 | 0.00 | 0.03 | 0.03 | 65 | 981.6 |
| 20260505072005 | 11 | 241 | 3.2 | 9.7 | 0.00 | 0.03 | 0.03 | 67 | 981.4 |
| 20260505070502 | 10 | 232 | 1.6 | 9.7 | 0.00 | 0.03 | 0.03 | 79 | 981.5 |
| 20260505064956 | 10 | 231 | 6.4 | 9.7 | 0.00 | 0.03 | 0.03 | 84 | 981.4 |
| 20260505063454 | 10 | 225 | 1.6 | 3.2 | 0.00 | 0.03 | 0.03 | 88 | 981.1 |
| 20260505061950 | 11 | 222 | 1.6 | 3.2 | 0.13 | 0.03 | 0.03 | 88 | 981.1 |
| 20260505060449 | 11 | 178 | 0.0 | 3.2 | 0.00 | 0.00 | 0.00 | 86 | 980.7 |
| 20260505054949 | 11 | 257 | 6.4 | 9.7 | 0.00 | 0.00 | 0.00 | 86 | 981.0 |
| 20260505053447 | 11 | 187 | 3.2 | 6.4 | 0.00 | 0.00 | 0.00 | 86 | 980.8 |
| 20260505051943 | 12 | 221 | 4.8 | 9.7 | 0.00 | 0.00 | 0.00 | 85 | 980.5 |
| 20260505050442 | 12 | 199 | 3.2 | 6.4 | 0.00 | 0.00 | 0.00 | 85 | 980.2 |
| 20260505040428 | 13 | 241 | 4.8 | 14.5 | 0.00 | 0.00 | 0.00 | 80 | 979.7 |
| 20260505034924 | 13 | 212 | 8.0 | 22.5 | 0.00 | 0.03 | 0.03 | 79 | 979.7 |
| 20260505033420 | 17 | 310 | 17.7 | 25.7 | 0.00 | 0.03 | 0.03 | 71 | 980.1 |
| 20260505031917 | 17 | 235 | 3.2 | 9.7 | 0.00 | 0.03 | 0.03 | 73 | 979.0 |
| 20260505030413 | 16 | 191 | 8.0 | 11.3 | 0.00 | 0.03 | 0.03 | 74 | 978.5 |
| 20260505024911 | 16 | 201 | 4.8 | 11.3 | 0.00 | 0.03 | 0.03 | 73 | 978.1 |
| 20260505023408 | 16 | 149 | 4.8 | 12.9 | 0.00 | 0.03 | 0.03 | 72 | 978.1 |
| 20260505021904 | 16 | 214 | 8.0 | 14.5 | 0.00 | 0.03 | 0.03 | 72 | 977.9 |
| 20260505020404 | 16 | 158 | 9.7 | 16.1 | 0.00 | 0.03 | 0.03 | 72 | 978.0 |
| 20260505014901 | 17 | 165 | 12.9 | 20.9 | 0.00 | 0.03 | 0.03 | 74 | 977.7 |
| 20260505013358 | 18 | 151 | 8.0 | 14.5 | 0.00 | 0.00 | 0.00 | 65 | 978.4 |
| 20260505011855 | 20 | 223 | 14.5 | 25.7 | 0.00 | 0.00 | 0.00 | 63 | 977.5 |
| 20260505010350 | 20 | 196 | 8.0 | 14.5 | 0.00 | 0.00 | 0.00 | 60 | 977.2 |
| 20260505004847 | 20 | 211 | 8.0 | 17.7 | 0.00 | 0.00 | 0.00 | 60 | 977.2 |
| 20260505003344 | 21 | 190 | 4.8 | 14.5 | 0.00 | 0.00 | 0.00 | 57 | 977.4 |
| 20260505001841 | 21 | 347 | 6.4 | 17.7 | 0.00 | 0.00 | 0.00 | 53 | 976.9 |
| 20260505000338 | 22 | 217 | 14.5 | 24.1 | 0.00 | 0.00 | 0.00 | 44 | 977.1 |
| 20260504234834 | 23 | 206 | 3.2 | 11.3 | 0.00 | 0.00 | 0.00 | 39 | 976.9 |
| 20260504233330 | 23 | 158 | 3.2 | 9.7 | 0.00 | 0.00 | 0.00 | 38 | 976.9 |
| 20260504231826 | 23 | 146 | 3.2 | 14.5 | 0.00 | 0.00 | 0.00 | 38 | 977.2 |
| 20260504230323 | 24 | 210 | 4.8 | 11.3 | 0.00 | 0.00 | 0.00 | 37 | 977.7 |
| 20260504224821 | 23 | 183 | 4.8 | 12.9 | 0.00 | 0.00 | 0.00 | 39 | 978.0 |
| 20260504223315 | 23 | 186 | 3.2 | 11.3 | 0.00 | 0.00 | 0.00 | 38 | 978.3 |
| 20260504221814 | 24 | 199 | 4.8 | 12.9 | 0.00 | 0.00 | 0.00 | 38 | 978.3 |
| 20260504220309 | 23 | 170 | 9.7 | 17.7 | 0.00 | 0.00 | 0.00 | 38 | 978.5 |
| 20260504214804 | 23 | 233 | 8.0 | 22.5 | 0.00 | 0.00 | 0.00 | 39 | 978.7 |
| 20260504213300 | 24 | 166 | 9.7 | 14.5 | 0.00 | 0.00 | 0.00 | 39 | 978.7 |
| 20260504211757 | 23 | 182 | 8.0 | 14.5 | 0.00 | 0.00 | 0.00 | 38 | 979.1 |
| 20260504210254 | 23 | 222 | 6.4 | 16.1 | 0.00 | 0.00 | 0.00 | 41 | 979.1 |
| 20260504204752 | 23 | 239 | 14.5 | 22.5 | 0.00 | 0.00 | 0.00 | 39 | 979.5 |
| 20260504203252 | 23 | 281 | 9.7 | 25.7 | 0.00 | 0.00 | 0.00 | 40 | 979.7 |
| 20260504201752 | 23 | 206 | 14.5 | 20.9 | 0.00 | 0.00 | 0.00 | 40 | 979.7 |
| 20260504200248 | 23 | 194 | 6.4 | 20.9 | 0.00 | 0.00 | 0.00 | 39 | 980.0 |
| 20260504194744 | 23 | 177 | 11.3 | 25.7 | 0.00 | 0.00 | 0.00 | 41 | 980.1 |
| 20260504193240 | 23 | 184 | 12.9 | 20.9 | 0.00 | 0.00 | 0.00 | 41 | 980.1 |
| 20260504191735 | 23 | 164 | 9.7 | 24.1 | 0.00 | 0.00 | 0.00 | 41 | 980.2 |
| 20260504190235 | 22 | 206 | 17.7 | 24.1 | 0.00 | 0.00 | 0.00 | 41 | 980.3 |
| 20260504184730 | 23 | 289 | 9.7 | 16.1 | 0.00 | 0.00 | 0.00 | 38 | 980.5 |
| 20260504183225 | 22 | 185 | 11.3 | 20.9 | 0.00 | 0.00 | 0.00 | 35 | 980.4 |
| 20260504181724 | 23 | 301 | 8.0 | 20.9 | 0.00 | 0.00 | 0.00 | 35 | 980.4 |
| 20260504180224 | 22 | 230 | 14.5 | 24.1 | 0.00 | 0.00 | 0.00 | 33 | 980.7 |
| 20260504174721 | 23 | 334 | 9.7 | 22.5 | 0.00 | 0.00 | 0.00 | 32 | 980.7 |
| 20260504173218 | 23 | 183 | 11.3 | 25.7 | 0.00 | 0.00 | 0.00 | 31 | 980.8 |
| 20260504171714 | 23 | 79 | 9.7 | 24.1 | 0.00 | 0.00 | 0.00 | 33 | 981.0 |
| 20260504170211 | 23 | 144 | 12.9 | 17.7 | 0.00 | 0.00 | 0.00 | 35 | 981.2 |
| 20260504160158 | 21 | 227 | 9.7 | 22.5 | 0.00 | 0.00 | 0.00 | 40 | 981.9 |